Regional Weather Roundup
Issued by NWS

Home | Current Version | Previous Version | Text Only | Print | Product List | Glossary Off
Versions: 1 2 3 4 5 6 7 8 9 10 11 12 13 14 15 16 17 18 19 20 21 22 23 24 25 26

000
ASUS45 KCYS 170410
RWRWY

WYOMING REGIONAL WEATHER ROUNDUP
NATIONAL WEATHER SERVICE CHEYENNE WY
900 PM MST FRI FEB 16 2018

NOTE:  "FAIR" INDICATES FEW OR NO CLOUDS BELOW 12,000 FEET
WITH NO SIGNIFICANT WEATHER AND/OR OBSTRUCTIONS TO VISIBILITY.

WYZ001-170500-
YELLOWSTONE NATIONAL PARK

CITY           SKY/WX    TMP DP  RH WIND       PRES   REMARKS
LK YELLOWSTONE   N/A     16  12  84 W8        29.84S WCI   5
W YELLOWSTONE  NOT AVBL

$$
WYZ002>013-054>058-071-098>099-170500-
NORTHERN WYOMING

CITY           SKY/WX    TMP DP  RH WIND       PRES   REMARKS
JACKSON        FLURRIES  22  18  85 SW17      29.92S WCI   8
CODY           FAIR      29  17  61 W20G36    29.80F WCI  16
GREYBULL       CLOUDY    19  13  77 CALM      29.87S
WORLAND        FAIR       8   5  87 E5        29.85F WCI   0
SHERIDAN       CLOUDY    26  15  63 S10       29.80F WCI  16
BUFFALO        CLOUDY    24  10  55 SW7       29.80F WCI  16
GILLETTE       CLOUDY    20  16  84 CALM      29.81R
HULETT         FAIR      28  18  64 SW3       29.82S
NEWCASTLE      FAIR      19  12  73 CALM      29.82R

$$
WYZ014>020-022>026-101>103-170500-
CENTRAL WYOMING

CITY           SKY/WX    TMP DP  RH WIND       PRES   REMARKS
BIG PINEY      MOCLDY    19   9  65 W15       29.94F WCI   5
PINEDALE       CLOUDY    21  14  73 W12       29.94R WCI   9
DUBOIS           N/A    N/A N/A N/A MISG        N/A
LANDER         FAIR      22   9  57 N8        29.87R WCI  12
RIVERTON       FAIR      22   8  55 W10       29.86R WCI  11
CASPER         MOCLDY    28  12  51 W22G30    29.83R WCI  14
DOUGLAS        FAIR      31  15  52 W21G30    29.79S WCI  18

$$
WYZ021-027>030-104>119-170500-
SOUTHERN WYOMING

CITY           SKY/WX    TMP DP  RH WIND       PRES   REMARKS
EVANSTON       CLOUDY    26   9  48 SW14      30.06R WCI  14
FORT BRIDGER   MOCLDY    27   7  43 W25G33    30.01F WCI  12
ROCK SPRINGS   CLOUDY    26   9  48 SW20G28   29.98R WCI  12
DIXON          CLOUDY    25  17  72 S3        30.03S
RAWLINS        FAIR      22  14  71 W25G37    29.90F WCI   5
SARATOGA       MOCLDY    23  18  80 W16G25    29.93F WCI  10
LARAMIE        CLOUDY    24  14  65 W23G31    29.84S WCI   9
CHEYENNE       FAIR      32   9  38 W15G24    29.81S WCI  22
TORRINGTON     CLOUDY    39  14  36 W15G24    29.81S WCI  31
PINE BLUFFS    FAIR      30  19  64 MISG      29.83S

$$




USA.gov is the U.S. government's official web portal to all federal, state and local government web resources and services.